{"data":{"norad_id":66294,"intl_designator":"2025-248B","name":"SEMI-1L","alt_names":[],"object_type":"PAYLOAD","status":"ACTIVE","operator":null,"country":"TURK","launch_date":"2025-11-02","launch_site_code":"AFETR","launch_vehicle":null,"mission":null,"orbit_class":"UNKNOWN","rcs_meters":null,"size_class":null,"mass_kg":null,"dimensions":null,"purposes":[],"wikipedia_slug":null,"has_3d_model":false,"image_url":null,"decayed_at":null,"tle_current":{"epoch":"2026-09-20T04:36:07.447104Z","epoch_age_seconds":158028,"freshness":"FRESH","line1":"1 66294U 25248B   26263.19175286  .00003387  00000+0  15871-3 0  9991","line2":"2 66294  45.4058 331.3184 0003655 259.7482 100.2993 15.21840109 48988","mean_motion":15.21840109,"eccentricity":0.0003655,"inclination_deg":45.4058,"raan_deg":331.3184,"arg_perigee_deg":259.7482,"mean_anomaly_deg":100.2993,"bstar":0.00015871,"rev_number":4898,"period_min":94.622292544663,"perigee_km":497.77632758409,"apogee_km":502.80445800823,"semimajor_km":6878.4273927962,"source":"CELESTRAK","updated_at":"2026-09-21T09:00:15.897295Z"}}}